| time (UTC) | temp C | wind direction | speed KPH | gust KPH | rain 1hr cm | rain 24hr cm | rain mn cm | humidity % | barometer mb |
| 20260507185732 | 16 | 235 | 8.0 | 12.9 | 0.00 | 0.00 | 0.00 | 44 | 1010.0 |
| 20260507185231 | 15 | 257 | 8.0 | 20.9 | 0.00 | 0.00 | 0.00 | 47 | 1010.1 |
| 20260507184730 | 15 | 279 | 8.0 | 22.5 | 0.00 | 0.00 | 0.00 | 47 | 1010.2 |
| 20260507184230 | 15 | 257 | 6.4 | 22.5 | 0.00 | 0.00 | 0.00 | 43 | 1010.2 |
| 20260507183730 | 15 | 241 | 6.4 | 19.3 | 0.00 | 0.00 | 0.00 | 42 | 1010.3 |
| 20260507182732 | 16 | 232 | 6.4 | 17.7 | 0.00 | 0.00 | 0.00 | 41 | 1010.1 |
| 20260507182232 | 16 | 236 | 6.4 | 16.1 | 0.00 | 0.00 | 0.00 | 42 | 1010.2 |
| 20260507181731 | 16 | 252 | 6.4 | 12.9 | 0.00 | 0.00 | 0.00 | 40 | 1010.2 |
| 20260507180730 | 16 | 264 | 4.8 | 12.9 | 0.00 | 0.00 | 0.00 | 41 | 1010.2 |
| 20260507180229 | 16 | 253 | 6.4 | 17.7 | 0.00 | 0.00 | 0.00 | 42 | 1010.3 |
| 20260507175729 | 16 | 265 | 6.4 | 17.7 | 0.00 | 0.00 | 0.00 | 39 | 1010.3 |
| 20260507175233 | 16 | 270 | 6.4 | 22.5 | 0.00 | 0.00 | 0.00 | 44 | 1010.3 |
| 20260507174732 | 16 | 276 | 6.4 | 22.5 | 0.00 | 0.00 | 0.00 | 43 | 1010.1 |
| 20260507173731 | 16 | 269 | 8.0 | 20.9 | 0.00 | 0.00 | 0.00 | 46 | 1010.4 |
| 20260507172730 | 15 | 246 | 6.4 | 14.5 | 0.00 | 0.00 | 0.00 | 47 | 1010.4 |
| 20260507172230 | 15 | 245 | 8.0 | 17.7 | 0.00 | 0.00 | 0.00 | 46 | 1010.4 |
| 20260507171729 | 15 | 254 | 4.8 | 17.7 | 0.00 | 0.00 | 0.00 | 44 | 1010.4 |
| 20260507171233 | 15 | 249 | 4.8 | 11.3 | 0.00 | 0.00 | 0.00 | 41 | 1010.5 |
| 20260507170731 | 15 | 263 | 4.8 | 16.1 | 0.00 | 0.00 | 0.00 | 45 | 1010.5 |
| 20260507170233 | 15 | 271 | 4.8 | 16.1 | 0.00 | 0.00 | 0.00 | 45 | 1010.5 |
| 20260507165232 | 16 | 307 | 4.8 | 16.1 | 0.00 | 0.00 | 0.00 | 43 | 1010.5 |
| 20260507164732 | 16 | 283 | 4.8 | 16.1 | 0.00 | 0.00 | 0.00 | 42 | 1010.5 |
| 20260507164231 | 16 | 280 | 4.8 | 14.5 | 0.00 | 0.00 | 0.00 | 46 | 1010.6 |
| 20260507162733 | 15 | 304 | 4.8 | 14.5 | 0.00 | 0.00 | 0.00 | 47 | 1010.6 |
| 20260507162232 | 15 | 305 | 4.8 | 12.9 | 0.00 | 0.00 | 0.00 | 43 | 1010.6 |
| 20260507161732 | 15 | 308 | 6.4 | 19.3 | 0.00 | 0.00 | 0.00 | 46 | 1010.6 |
| 20260507160230 | 15 | 282 | 4.8 | 16.1 | 0.00 | 0.00 | 0.00 | 45 | 1010.6 |
| 20260507155730 | 15 | 285 | 4.8 | 16.1 | 0.00 | 0.00 | 0.00 | 45 | 1010.6 |
| 20260507155233 | 15 | 289 | 4.8 | 12.9 | 0.00 | 0.00 | 0.00 | 46 | 1010.7 |
| 20260507154732 | 15 | 313 | 6.4 | 22.5 | 0.00 | 0.00 | 0.00 | 45 | 1010.7 |
| 20260507154232 | 15 | 306 | 6.4 | 22.5 | 0.00 | 0.00 | 0.00 | 46 | 1010.7 |
| 20260507153731 | 15 | 266 | 4.8 | 19.3 | 0.00 | 0.00 | 0.00 | 47 | 1010.7 |
| 20260507153230 | 15 | 238 | 3.2 | 12.9 | 0.00 | 0.00 | 0.00 | 45 | 1010.7 |
| 20260507152730 | 14 | 285 | 4.8 | 16.1 | 0.00 | 0.00 | 0.00 | 48 | 1010.7 |
| 20260507152230 | 14 | 281 | 4.8 | 16.1 | 0.00 | 0.00 | 0.00 | 49 | 1010.7 |
| 20260507151730 | 14 | 255 | 3.2 | 9.7 | 0.00 | 0.00 | 0.00 | 48 | 1010.8 |
| 20260507151232 | 14 | 281 | 3.2 | 9.7 | 0.00 | 0.00 | 0.00 | 50 | 1010.7 |
| 20260507150732 | 14 | 243 | 4.8 | 9.7 | 0.00 | 0.00 | 0.00 | 52 | 1010.7 |
| 20260507145731 | 13 | 294 | 4.8 | 12.9 | 0.00 | 0.00 | 0.00 | 53 | 1010.9 |
| 20260507145230 | 13 | 301 | 4.8 | 9.7 | 0.00 | 0.00 | 0.00 | 55 | 1010.8 |
| 20260507143729 | 12 | 260 | 3.2 | 6.4 | 0.00 | 0.00 | 0.00 | 62 | 1010.9 |
| 20260507143233 | 11 | 289 | 3.2 | 8.0 | 0.00 | 0.00 | 0.00 | 61 | 1010.9 |
| 20260507142732 | 11 | 317 | 4.8 | 9.7 | 0.00 | 0.00 | 0.00 | 62 | 1010.9 |
| 20260507142232 | 11 | 310 | 4.8 | 9.7 | 0.00 | 0.00 | 0.00 | 63 | 1011.0 |
| 20260507141731 | 11 | 286 | 3.2 | 9.7 | 0.00 | 0.00 | 0.00 | 66 | 1011.0 |
| 20260507141230 | 11 | 286 | 3.2 | 8.0 | 0.00 | 0.00 | 0.00 | 68 | 1011.1 |
| 20260507140730 | 10 | 310 | 4.8 | 8.0 | 0.00 | 0.00 | 0.00 | 68 | 1011.2 |
| 20260507135733 | 10 | 258 | 3.2 | 4.8 | 0.00 | 0.00 | 0.00 | 72 | 1011.2 |
| 20260507135232 | 10 | 284 | 1.6 | 4.8 | 0.00 | 0.00 | 0.00 | 74 | 1011.3 |
| 20260507133730 | 9 | 239 | 3.2 | 8.0 | 0.00 | 0.00 | 0.00 | 76 | 1011.4 |
| 20260507133229 | 9 | 253 | 3.2 | 9.7 | 0.00 | 0.00 | 0.00 | 76 | 1011.4 |
| 20260507132733 | 8 | 249 | 3.2 | 9.7 | 0.00 | 0.00 | 0.00 | 77 | 1011.5 |
| 20260507132232 | 8 | 275 | 4.8 | 14.5 | 0.00 | 0.00 | 0.00 | 78 | 1011.5 |
| 20260507131732 | 8 | 306 | 4.8 | 14.5 | 0.00 | 0.00 | 0.00 | 80 | 1011.5 |
| 20260507131231 | 8 | 302 | 1.6 | 8.0 | 0.00 | 0.00 | 0.00 | 82 | 1011.5 |
| 20260507130731 | 8 | 290 | 0.0 | 4.8 | 0.00 | 0.00 | 0.00 | 83 | 1011.5 |
| 20260507130230 | 7 | 240 | 1.6 | 4.8 | 0.00 | 0.00 | 0.00 | 84 | 1011.4 |
| 20260507125729 | 7 | 239 | 1.6 | 4.8 | 0.00 | 0.00 | 0.00 | 86 | 1011.4 |
| 20260507125233 | 7 | 238 | 1.6 | 6.4 | 0.00 | 0.00 | 0.00 | 87 | 1011.5 |
| 20260507124231 | 7 | 249 | 3.2 | 9.7 | 0.00 | 0.00 | 0.00 | 88 | 1011.4 |
| 20260507123731 | 6 | 250 | 1.6 | 9.7 | 0.00 | 0.00 | 0.00 | 90 | 1011.5 |
| 20260507123230 | 6 | 263 | 1.6 | 6.4 | 0.00 | 0.00 | 0.00 | 90 | 1011.5 |
| 20260507120732 | 5 | 267 | 0.0 | 4.8 | 0.00 | 0.00 | 0.00 | 91 | 1011.4 |
| 20260507120232 | 5 | 317 | 0.0 | 3.2 | 0.00 | 0.00 | 0.00 | 91 | 1011.4 |
| 20260507114730 | 4 | 330 | 0.0 | 4.8 | 0.00 | 0.00 | 0.00 | 90 | 1011.5 |
| 20260507114229 | 4 | 0 | 0.0 | 0.0 | 0.00 | 0.00 | 0.00 | 90 | 1011.5 |
| 20260507113729 | 4 | 0 | 0.0 | 0.0 | 0.00 | 0.00 | 0.00 | 90 | 1011.5 |
| 20260507112732 | 3 | 0 | 0.0 | 0.0 | 0.00 | 0.00 | 0.00 | 89 | 1011.3 |
| 20260507112232 | 3 | 0 | 0.0 | 0.0 | 0.00 | 0.00 | 0.00 | 89 | 1011.2 |
| 20260507111231 | 3 | 0 | 0.0 | 0.0 | 0.00 | 0.00 | 0.00 | 89 | 1011.3 |
| 20260507110730 | 3 | 0 | 0.0 | 0.0 | 0.00 | 0.00 | 0.00 | 89 | 1011.2 |
| 20260507105733 | 3 | 0 | 0.0 | 0.0 | 0.00 | 0.00 | 0.00 | 89 | 1011.1 |
| 20260507100732 | 3 | 0 | 0.0 | 0.0 | 0.00 | 0.00 | 0.00 | 89 | 1011.0 |
| 20260507100231 | 3 | 0 | 0.0 | 0.0 | 0.00 | 0.00 | 0.00 | 88 | 1011.0 |
| 20260507095230 | 3 | 0 | 0.0 | 0.0 | 0.00 | 0.00 | 0.00 | 88 | 1010.9 |
| 20260507094233 | 3 | 0 | 0.0 | 0.0 | 0.00 | 0.03 | 0.00 | 88 | 1011.0 |
| 20260507091730 | 3 | 0 | 0.0 | 0.0 | 0.00 | 0.08 | 0.00 | 88 | 1011.1 |
| 20260507090733 | 3 | 0 | 0.0 | 0.0 | 0.00 | 0.13 | 0.00 | 88 | 1011.1 |
| 20260507090232 | 3 | 0 | 0.0 | 0.0 | 0.00 | 0.13 | 0.00 | 88 | 1011.1 |
| 20260507085732 | 3 | 0 | 0.0 | 0.0 | 0.00 | 0.13 | 0.00 | 87 | 1011.1 |
| 20260507085231 | 3 | 0 | 0.0 | 0.0 | 0.00 | 0.13 | 0.00 | 87 | 1011.2 |
| 20260507084731 | 4 | 0 | 0.0 | 0.0 | 0.00 | 0.13 | 0.00 | 87 | 1011.1 |
| 20260507084231 | 4 | 0 | 0.0 | 0.0 | 0.00 | 0.13 | 0.00 | 87 | 1011.1 |
| 20260507083229 | 4 | 0 | 0.0 | 0.0 | 0.00 | 0.13 | 0.00 | 86 | 1011.2 |
| 20260507082733 | 4 | 0 | 0.0 | 0.0 | 0.00 | 0.13 | 0.00 | 86 | 1011.2 |
| 20260507082233 | 4 | 0 | 0.0 | 0.0 | 0.00 | 0.13 | 0.00 | 86 | 1011.2 |
| 20260507081732 | 4 | 0 | 0.0 | 0.0 | 0.00 | 0.18 | 0.00 | 86 | 1011.2 |
| 20260507080230 | 4 | 0 | 0.0 | 0.0 | 0.00 | 0.25 | 0.00 | 86 | 1011.2 |
| 20260507075730 | 4 | 0 | 0.0 | 0.0 | 0.00 | 0.25 | 0.00 | 86 | 1011.3 |
| 20260507075229 | 4 | 0 | 0.0 | 0.0 | 0.00 | 0.28 | 0.00 | 86 | 1011.3 |
| 20260507074733 | 5 | 0 | 0.0 | 0.0 | 0.00 | 0.30 | 0.00 | 86 | 1011.3 |
| 20260507074233 | 5 | 0 | 0.0 | 0.0 | 0.00 | 0.36 | 0.00 | 85 | 1011.3 |
| 20260507073732 | 5 | 0 | 0.0 | 0.0 | 0.00 | 0.36 | 0.00 | 85 | 1011.3 |
| 20260507072731 | 5 | 0 | 0.0 | 0.0 | 0.00 | 0.38 | 0.00 | 85 | 1011.3 |
| 20260507072231 | 5 | 0 | 0.0 | 0.0 | 0.00 | 0.38 | 0.00 | 85 | 1011.3 |
| 20260507071730 | 5 | 0 | 0.0 | 0.0 | 0.00 | 0.43 | 0.00 | 85 | 1011.3 |
| 20260507064231 | 5 | 0 | 0.0 | 0.0 | 0.00 | 0.58 | 0.00 | 84 | 1011.5 |
| 20260507063230 | 5 | 0 | 0.0 | 0.0 | 0.00 | 0.58 | 0.00 | 84 | 1011.6 |
| 20260507061732 | 6 | 0 | 0.0 | 0.0 | 0.00 | 0.64 | 0.00 | 83 | 1011.7 |
| 20260507061232 | 6 | 0 | 0.0 | 0.0 | 0.00 | 0.69 | 0.00 | 83 | 1011.8 |
| 20260507060731 | 6 | 0 | 0.0 | 0.0 | 0.00 | 0.71 | 0.00 | 83 | 1011.8 |
| 20260507060230 | 6 | 0 | 0.0 | 0.0 | 0.00 | 0.71 | 0.00 | 83 | 1011.9 |
| 20260507055730 | 6 | 0 | 0.0 | 0.0 | 0.00 | 0.71 | 0.00 | 83 | 1011.9 |
| 20260507055233 | 6 | 0 | 0.0 | 0.0 | 0.00 | 0.76 | 0.00 | 83 | 1011.9 |
| 20260507054732 | 6 | 0 | 0.0 | 0.0 | 0.00 | 0.76 | 0.00 | 82 | 1012.0 |
| 20260507054232 | 6 | 0 | 0.0 | 0.0 | 0.00 | 0.79 | 0.00 | 82 | 1012.0 |
| 20260507053731 | 6 | 0 | 0.0 | 0.0 | 0.00 | 0.79 | 0.00 | 82 | 1012.0 |
| 20260507053231 | 6 | 0 | 0.0 | 0.0 | 0.00 | 0.79 | 0.00 | 82 | 1012.0 |
| 20260507052730 | 6 | 0 | 0.0 | 0.0 | 0.00 | 0.79 | 0.00 | 82 | 1012.0 |
| 20260507052229 | 6 | 0 | 0.0 | 0.0 | 0.00 | 0.84 | 0.00 | 82 | 1012.1 |
| 20260507051733 | 6 | 0 | 0.0 | 0.0 | 0.00 | 0.86 | 0.00 | 82 | 1012.1 |
| 20260507050732 | 7 | 0 | 0.0 | 0.0 | 0.00 | 0.86 | 0.00 | 81 | 1012.1 |
| 20260507050231 | 7 | 0 | 0.0 | 0.0 | 0.00 | 0.86 | 0.00 | 82 | 1012.1 |
| 20260507045824 | 7 | 0 | 0.0 | 0.0 | 0.00 | 0.86 | 0.00 | 82 | 1012.0 |
| 20260507045731 | 7 | 0 | 0.0 | 0.0 | 0.00 | 0.86 | 0.00 | 82 | 1012.0 |
| 20260507045231 | 7 | 0 | 0.0 | 0.0 | 0.00 | 0.91 | 0.00 | 82 | 1012.1 |
| 20260507044730 | 7 | 0 | 0.0 | 0.0 | 0.00 | 0.91 | 0.00 | 82 | 1012.1 |
| 20260507044230 | 7 | 0 | 0.0 | 0.0 | 0.00 | 0.91 | 0.00 | 82 | 1012.1 |
| 20260507043733 | 7 | 0 | 0.0 | 0.0 | 0.00 | 0.94 | 0.00 | 82 | 1012.1 |
| 20260507042732 | 7 | 0 | 0.0 | 0.0 | 0.00 | 0.94 | 0.00 | 81 | 1012.1 |
| 20260507042232 | 7 | 0 | 0.0 | 0.0 | 0.00 | 0.94 | 0.00 | 80 | 1012.2 |
| 20260507041731 | 7 | 0 | 0.0 | 0.0 | 0.00 | 0.94 | 0.00 | 80 | 1012.2 |
| 20260507040730 | 7 | 0 | 0.0 | 0.0 | 0.00 | 0.97 | 0.00 | 79 | 1012.4 |
| 20260507040230 | 7 | 0 | 0.0 | 0.0 | 0.00 | 0.97 | 0.00 | 78 | 1012.4 |
| 20260507035734 | 7 | 0 | 0.0 | 0.0 | 0.00 | 1.02 | 0.99 | 77 | 1012.5 |
| 20260507035232 | 7 | 0 | 0.0 | 0.0 | 0.00 | 1.02 | 0.99 | 77 | 1012.5 |
| 20260507034732 | 7 | 0 | 0.0 | 0.0 | 0.00 | 1.02 | 0.99 | 76 | 1012.6 |
| 20260507034231 | 7 | 0 | 0.0 | 0.0 | 0.00 | 1.04 | 0.99 | 75 | 1012.6 |
| 20260507033731 | 7 | 0 | 0.0 | 0.0 | 0.00 | 1.04 | 0.99 | 74 | 1012.7 |
| 20260507033231 | 8 | 0 | 0.0 | 0.0 | 0.00 | 1.09 | 0.99 | 73 | 1012.7 |
| 20260507032730 | 8 | 0 | 0.0 | 0.0 | 0.00 | 1.09 | 0.99 | 72 | 1012.8 |
| 20260507032230 | 8 | 0 | 0.0 | 0.0 | 0.00 | 1.09 | 0.99 | 72 | 1012.8 |
| 20260507031733 | 8 | 0 | 0.0 | 0.0 | 0.00 | 1.09 | 0.99 | 72 | 1012.8 |
| 20260507031233 | 8 | 0 | 0.0 | 0.0 | 0.00 | 1.09 | 0.99 | 71 | 1012.7 |
| 20260507030732 | 8 | 0 | 0.0 | 0.0 | 0.00 | 1.12 | 0.99 | 71 | 1012.7 |
| 20260507030231 | 8 | 0 | 0.0 | 0.0 | 0.00 | 1.12 | 0.99 | 71 | 1012.6 |
| 20260507025731 | 8 | 0 | 0.0 | 0.0 | 0.00 | 1.17 | 0.99 | 70 | 1012.5 |
| 20260507025231 | 8 | 0 | 0.0 | 0.0 | 0.00 | 1.17 | 0.99 | 70 | 1012.6 |
| 20260507024229 | 8 | 0 | 0.0 | 0.0 | 0.00 | 1.19 | 0.99 | 69 | 1012.5 |
| 20260507023733 | 8 | 0 | 0.0 | 0.0 | 0.00 | 1.19 | 0.99 | 69 | 1012.3 |
| 20260507023233 | 8 | 0 | 0.0 | 0.0 | 0.00 | 1.24 | 0.99 | 69 | 1012.3 |
| 20260507021230 | 8 | 0 | 0.0 | 0.0 | 0.00 | 1.47 | 0.99 | 68 | 1012.3 |
| 20260507020730 | 9 | 0 | 0.0 | 0.0 | 0.00 | 1.55 | 0.99 | 68 | 1012.3 |
| 20260507020229 | 9 | 0 | 0.0 | 0.0 | 0.00 | 1.57 | 0.99 | 68 | 1012.2 |
| 20260507015734 | 9 | 0 | 0.0 | 0.0 | 0.00 | 1.60 | 0.99 | 67 | 1012.2 |
| 20260507014232 | 9 | 0 | 0.0 | 0.0 | 0.00 | 1.73 | 0.99 | 67 | 1012.1 |
| 20260507013731 | 9 | 0 | 0.0 | 0.0 | 0.00 | 1.75 | 0.99 | 67 | 1012.0 |
| 20260507013231 | 9 | 0 | 0.0 | 0.0 | 0.00 | 1.83 | 0.99 | 66 | 1011.9 |
| 20260507012730 | 9 | 0 | 0.0 | 0.0 | 0.00 | 1.88 | 0.99 | 66 | 1011.8 |
| 20260507012229 | 9 | 0 | 0.0 | 0.0 | 0.00 | 1.91 | 0.99 | 66 | 1011.8 |
| 20260507011733 | 9 | 0 | 0.0 | 0.0 | 0.00 | 1.93 | 0.99 | 64 | 1011.8 |
| 20260507011232 | 10 | 0 | 0.0 | 0.0 | 0.00 | 2.01 | 0.99 | 64 | 1011.8 |
| 20260507010732 | 10 | 332 | 0.0 | 3.2 | 0.00 | 2.06 | 0.99 | 65 | 1011.8 |
| 20260507010232 | 10 | 333 | 0.0 | 3.2 | 0.00 | 2.06 | 0.99 | 64 | 1011.7 |
| 20260507005732 | 10 | 332 | 0.0 | 3.2 | 0.00 | 2.11 | 0.99 | 64 | 1011.7 |
| 20260507005231 | 10 | 331 | 0.0 | 3.2 | 0.00 | 2.11 | 0.99 | 63 | 1011.7 |
| 20260507004730 | 10 | 0 | 0.0 | 0.0 | 0.00 | 2.16 | 0.99 | 63 | 1011.6 |
| 20260507004230 | 10 | 0 | 0.0 | 0.0 | 0.00 | 2.16 | 0.99 | 62 | 1011.7 |
| 20260507003232 | 10 | 329 | 0.0 | 1.6 | 0.00 | 2.18 | 0.99 | 62 | 1011.8 |
| 20260507002732 | 10 | 328 | 0.0 | 3.2 | 0.00 | 2.18 | 0.99 | 62 | 1011.7 |
| 20260507002231 | 10 | 328 | 1.6 | 4.8 | 0.00 | 2.18 | 0.99 | 62 | 1011.6 |
| 20260507001731 | 10 | 328 | 1.6 | 4.8 | 0.00 | 2.18 | 0.99 | 61 | 1011.6 |
| 20260507000730 | 10 | 326 | 1.6 | 6.4 | 0.00 | 2.18 | 0.99 | 60 | 1011.5 |
| 20260506235733 | 10 | 290 | 1.6 | 6.4 | 0.00 | 2.18 | 0.99 | 59 | 1011.6 |
| 20260506235233 | 10 | 284 | 3.2 | 6.4 | 0.00 | 2.18 | 0.99 | 60 | 1011.6 |
| 20260506234732 | 10 | 286 | 3.2 | 6.4 | 0.00 | 2.21 | 0.99 | 60 | 1011.6 |
| 20260506234231 | 10 | 299 | 3.2 | 8.0 | 0.00 | 2.21 | 0.99 | 59 | 1011.6 |
| 20260506233731 | 10 | 320 | 3.2 | 8.0 | 0.00 | 2.26 | 0.99 | 60 | 1011.6 |
| 20260506232229 | 11 | 307 | 3.2 | 6.4 | 0.00 | 2.36 | 0.99 | 59 | 1011.5 |
| 20260506231232 | 11 | 305 | 3.2 | 8.0 | 0.00 | 2.49 | 0.99 | 58 | 1011.3 |
| 20260506230732 | 11 | 301 | 3.2 | 8.0 | 0.00 | 2.54 | 0.99 | 58 | 1011.2 |
| 20260506225729 | 11 | 318 | 3.2 | 8.0 | 0.00 | 2.90 | 0.99 | 57 | 1011.3 |
| 20260506225232 | 11 | 323 | 3.2 | 14.5 | 0.00 | 2.95 | 0.99 | 57 | 1011.2 |
| 20260506224231 | 11 | 323 | 4.8 | 16.1 | 0.00 | 2.97 | 0.99 | 56 | 1011.2 |
| 20260506223231 | 12 | 314 | 3.2 | 11.3 | 0.00 | 2.97 | 0.99 | 57 | 1010.9 |
| 20260506222229 | 12 | 325 | 4.8 | 12.9 | 0.00 | 2.97 | 0.99 | 57 | 1010.9 |
| 20260506221232 | 12 | 344 | 3.2 | 6.4 | 0.00 | 2.97 | 0.99 | 55 | 1010.7 |
| 20260506214733 | 12 | 318 | 4.8 | 8.0 | 0.00 | 2.97 | 0.99 | 52 | 1010.4 |
| 20260506212731 | 12 | 305 | 4.8 | 12.9 | 0.00 | 2.97 | 0.99 | 50 | 1010.2 |
| 20260506212230 | 12 | 314 | 3.2 | 9.7 | 0.00 | 2.97 | 0.99 | 51 | 1010.1 |
| 20260506211233 | 13 | 314 | 4.8 | 11.3 | 0.00 | 2.97 | 0.99 | 49 | 1010.3 |
| 20260506210732 | 13 | 323 | 4.8 | 11.3 | 0.00 | 3.05 | 0.99 | 51 | 1010.2 |
| 20260506210232 | 13 | 321 | 3.2 | 9.7 | 0.00 | 3.05 | 0.99 | 48 | 1010.2 |
| 20260506205731 | 13 | 303 | 3.2 | 11.3 | 0.00 | 3.05 | 0.99 | 47 | 1010.2 |
| 20260506205230 | 13 | 300 | 3.2 | 11.3 | 0.00 | 3.05 | 0.99 | 49 | 1010.3 |
| 20260506204229 | 13 | 313 | 4.8 | 17.7 | 0.00 | 3.05 | 0.99 | 49 | 1010.5 |
| 20260506203232 | 13 | 309 | 4.8 | 17.7 | 0.00 | 3.07 | 0.99 | 48 | 1010.2 |
| 20260506202732 | 13 | 312 | 4.8 | 17.7 | 0.00 | 3.15 | 0.99 | 47 | 1010.2 |
| 20260506202231 | 13 | 309 | 4.8 | 11.3 | 0.00 | 3.15 | 0.99 | 48 | 1010.2 |
| 20260506201731 | 13 | 298 | 4.8 | 12.9 | 0.00 | 3.15 | 0.99 | 51 | 1010.2 |
| 20260506201230 | 13 | 289 | 3.2 | 12.9 | 0.00 | 3.15 | 0.99 | 50 | 1010.3 |
| 20260506200229 | 13 | 300 | 6.4 | 14.5 | 0.00 | 3.15 | 0.99 | 50 | 1010.5 |
| 20260506195232 | 14 | 321 | 4.8 | 8.0 | 0.00 | 3.15 | 0.99 | 50 | 1010.3 |
| 20260506193731 | 15 | 313 | 4.8 | 17.7 | 0.00 | 3.15 | 0.99 | 47 | 1010.1 |
| 20260506193230 | 15 | 309 | 8.0 | 22.5 | 0.00 | 3.15 | 0.99 | 46 | 1010.1 |
| 20260506192730 | 15 | 308 | 8.0 | 22.5 | 0.00 | 3.15 | 0.99 | 46 | 1010.2 |
| 20260506191733 | 16 | 311 | 4.8 | 16.1 | 0.00 | 3.15 | 0.99 | 49 | 1010.4 |
| 20260506191233 | 16 | 321 | 6.4 | 16.1 | 0.00 | 3.15 | 0.99 | 48 | 1010.1 |
| 20260506190231 | 16 | 321 | 4.8 | 19.3 | 0.00 | 3.15 | 0.99 | 48 | 1010.3 |